Flag for Germany Weather past 2 weeks in Offenburg, Baden-Württemberg, Germany

Now
54 °F

Scattered clouds.


Feels Like: 50 °F
Forecast: 34 / 57 °F
Wind: 12 mph from Northwest

Location: Lahr - CAN-AFB

Current Time: Mar 27, 2015 at 1:00:21 PM

Latest Report: Mar 27, 2015 at 12:20 PM


Visibility: N/A

Pressure: 30.12 "Hg

Humidity: 44%

Dew point: 32 °F

Location of OffenburgLocation

Historic Weather in Offenburg — Graph

°F

Offenburg temperature yesterday

Maximum temperature yesterday: 48 °F (at 2:50 PM)
Minimum temperature yesterday: 43 °F (at 7:50 AM)
Average temperature yesterday: 46 °F

Past Weeks' High & Low Weather Summary

 TemperatureHumidityPressure
High64 °F (Mar 18, 3:50 PM)100% (Mar 17, 8:20 AM)30.39 "Hg (Mar 17, 8:20 AM)
Low30 °F (Mar 13, 7:50 AM)28% (Mar 12, 2:50 PM)29.65 "Hg (Mar 25, 7:50 AM)
Average50 °F61%30.06 "Hg
* Reported Mar 12 11:20 AM — Mar 27 11:20 AM, Offenburg, Weather by CustomWeather, © 2015

Note: Actual official high and low records may vary slightly from our data, if they occured in-between our weather recording intervals... More about our weather records

Advertising

Offenburg weather history for previous 24 hours

 ConditionsComfort  
Time TempWeatherWind HumidityBarometerVisibility
11:20 AM
Fri, Mar 27
50 °FScattered clouds.9 mph58%30.12 "HgN/A
10:50 AM50 °FScattered clouds.8 mph54%30.12 "HgN/A
10:20 AM48 °FScattered clouds.13 mph58%30.12 "HgN/A
9:50 AM50 °FScattered clouds.9 mph67%30.12 "HgN/A
9:20 AM46 °FScattered clouds.9 mph76%30.09 "HgN/A
8:50 AM48 °FPassing clouds.9 mph76%30.09 "HgN/A
8:20 AM45 °FPassing clouds.8 mph81%30.07 "HgN/A
7:50 AM43 °FScattered clouds.8 mph87%30.07 "HgN/A
7:50 PM
Thu, Mar 26
43 °FLight rain. Partly cloudy.8 mph81%29.89 "HgN/A
7:20 PM45 °FLight rain. Partly cloudy.10 mph76%29.86 "HgN/A
6:50 PM46 °FLight rain. Partly cloudy.13 mph71%29.86 "HgN/A
6:20 PM48 °FBroken clouds.15 mph66%29.83 "HgN/A
5:50 PM48 °FPartly sunny.14 mph66%29.83 "HgN/A
5:20 PM48 °FPartly sunny.13 mph66%29.83 "HgN/A
4:50 PM48 °FPartly sunny.13 mph71%29.83 "HgN/A
4:20 PM48 °FPartly sunny.12 mph71%29.83 "HgN/A
3:50 PM48 °FPartly sunny.10 mph71%29.83 "HgN/A
3:20 PM48 °FBroken clouds.7 mph66%29.83 "HgN/A
2:50 PM48 °FScattered clouds.7 mph66%29.83 "HgN/A
2:20 PM46 °FScattered clouds.7 mph71%29.83 "HgN/A
1:50 PM46 °FPartly sunny.7 mph66%29.83 "HgN/A
1:20 PM46 °FScattered clouds.8 mph66%29.86 "HgN/A
Weather by CustomWeather, © 2015

See weather overviewHow to use our weather pages